| time (UTC) | temp C | wind direction | speed KPH | gust KPH | rain 1hr cm | rain 24hr cm | rain mn cm | humidity % | barometer mb |
| 20260504030227 | 19 | 186 | 0.0 | 0.0 | 0.00 | 0.00 | 0.00 | 59 | 1018.4 |
| 20260504025721 | 19 | 186 | 0.0 | 0.0 | 0.00 | 0.00 | 0.00 | 59 | 1018.4 |
| 20260504025214 | 19 | 186 | 0.0 | 0.0 | 0.00 | 0.00 | 0.00 | 58 | 1018.4 |
| 20260504024709 | 20 | 186 | 0.0 | 0.0 | 0.00 | 0.00 | 0.00 | 60 | 1018.3 |
| 20260504024204 | 20 | 186 | 0.0 | 0.0 | 0.00 | 0.00 | 0.00 | 57 | 1018.2 |
| 20260504023657 | 20 | 186 | 0.0 | 0.0 | 0.00 | 0.00 | 0.00 | 56 | 1018.2 |
| 20260504023151 | 20 | 186 | 0.0 | 0.0 | 0.00 | 0.00 | 0.00 | 56 | 1018.3 |
| 20260504022645 | 20 | 186 | 0.0 | 0.0 | 0.00 | 0.00 | 0.00 | 57 | 1018.3 |
| 20260504022139 | 20 | 186 | 0.0 | 0.0 | 0.00 | 0.00 | 0.00 | 56 | 1018.3 |
| 20260504021633 | 20 | 186 | 0.0 | 0.0 | 0.00 | 0.00 | 0.00 | 56 | 1018.4 |
| 20260504021127 | 21 | 186 | 0.0 | 0.0 | 0.00 | 0.00 | 0.00 | 55 | 1018.4 |
| 20260504020852 | 21 | 186 | 0.0 | 0.0 | 0.00 | 0.00 | 0.00 | 54 | 1018.4 |
| 20260504020115 | 21 | 186 | 0.0 | 0.0 | 0.00 | 0.00 | 0.00 | 53 | 1018.3 |
| 20260504015841 | 21 | 186 | 0.0 | 0.0 | 0.00 | 0.00 | 0.00 | 52 | 1018.3 |
| 20260504015103 | 21 | 186 | 0.0 | 0.0 | 0.00 | 0.00 | 0.00 | 52 | 1018.2 |
| 20260504014557 | 21 | 186 | 0.0 | 0.0 | 0.00 | 0.00 | 0.00 | 52 | 1018.2 |
| 20260504014051 | 21 | 186 | 0.0 | 0.0 | 0.00 | 0.00 | 0.00 | 51 | 1018.2 |
| 20260504013545 | 22 | 186 | 0.0 | 0.0 | 0.00 | 0.00 | 0.00 | 51 | 1018.1 |
| 20260504013039 | 22 | 186 | 0.0 | 0.0 | 0.00 | 0.00 | 0.00 | 50 | 1017.9 |
| 20260504012532 | 22 | 186 | 0.0 | 3.2 | 0.00 | 0.00 | 0.00 | 50 | 1017.9 |
| 20260504012027 | 22 | 186 | 0.0 | 3.2 | 0.00 | 0.00 | 0.00 | 50 | 1017.8 |
| 20260504011521 | 22 | 186 | 1.6 | 4.8 | 0.00 | 0.00 | 0.00 | 49 | 1017.8 |
| 20260504011015 | 22 | 186 | 0.0 | 6.4 | 0.00 | 0.00 | 0.00 | 49 | 1017.8 |
| 20260504010508 | 22 | 186 | 0.0 | 6.4 | 0.00 | 0.00 | 0.00 | 49 | 1017.8 |
| 20260504010003 | 22 | 186 | 1.6 | 4.8 | 0.00 | 0.00 | 0.00 | 49 | 1017.8 |
| 20260504005458 | 22 | 186 | 1.6 | 4.8 | 0.00 | 0.00 | 0.00 | 49 | 1017.7 |
| 20260504004952 | 22 | 186 | 0.0 | 4.8 | 0.00 | 0.00 | 0.00 | 48 | 1017.8 |
| 20260504004446 | 23 | 186 | 0.0 | 3.2 | 0.00 | 0.00 | 0.00 | 48 | 1017.8 |
| 20260504003939 | 23 | 186 | 0.0 | 6.4 | 0.00 | 0.00 | 0.00 | 48 | 1017.8 |
| 20260504003433 | 23 | 186 | 0.0 | 6.4 | 0.00 | 0.00 | 0.00 | 47 | 1017.9 |
| 20260504003157 | 23 | 186 | 1.6 | 6.4 | 0.00 | 0.00 | 0.00 | 47 | 1018.1 |
| 20260504002421 | 23 | 186 | 1.6 | 6.4 | 0.00 | 0.00 | 0.00 | 46 | 1018.1 |
| 20260504001915 | 23 | 186 | 1.6 | 8.0 | 0.00 | 0.00 | 0.00 | 46 | 1018.1 |
| 20260504001409 | 23 | 186 | 1.6 | 14.5 | 0.00 | 0.00 | 0.00 | 45 | 1017.9 |
| 20260504000902 | 23 | 173 | 1.6 | 14.5 | 0.00 | 0.00 | 0.00 | 45 | 1018.1 |
| 20260504000357 | 24 | 210 | 3.2 | 9.7 | 0.00 | 0.00 | 0.00 | 44 | 1018.1 |
| 20260503235851 | 24 | 127 | 3.2 | 11.3 | 0.00 | 0.00 | 0.00 | 45 | 1018.2 |
| 20260503235345 | 24 | 186 | 3.2 | 11.3 | 0.00 | 0.00 | 0.00 | 44 | 1018.1 |
| 20260503234839 | 24 | 168 | 4.8 | 14.5 | 0.00 | 0.00 | 0.00 | 44 | 1018.3 |
| 20260503234603 | 24 | 163 | 3.2 | 14.5 | 0.00 | 0.00 | 0.00 | 43 | 1018.2 |
| 20260503233827 | 24 | 192 | 3.2 | 14.5 | 0.00 | 0.00 | 0.00 | 43 | 1018.3 |
| 20260503233321 | 24 | 173 | 3.2 | 14.5 | 0.00 | 0.00 | 0.00 | 42 | 1018.4 |
| 20260503232815 | 25 | 152 | 3.2 | 12.9 | 0.00 | 0.00 | 0.00 | 42 | 1018.6 |
| 20260503232315 | 25 | 144 | 3.2 | 14.5 | 0.00 | 0.00 | 0.00 | 41 | 1018.6 |
| 20260503231816 | 25 | 130 | 3.2 | 14.5 | 0.00 | 0.00 | 0.00 | 41 | 1018.6 |
| 20260503231315 | 25 | 165 | 3.2 | 12.9 | 0.00 | 0.00 | 0.00 | 41 | 1018.6 |
| 20260503230813 | 25 | 107 | 4.8 | 14.5 | 0.00 | 0.00 | 0.00 | 41 | 1018.5 |
| 20260503230311 | 25 | 161 | 3.2 | 14.5 | 0.00 | 0.00 | 0.00 | 41 | 1018.5 |
| 20260503225811 | 25 | 149 | 3.2 | 14.5 | 0.00 | 0.00 | 0.00 | 41 | 1018.7 |
| 20260503225311 | 25 | 146 | 3.2 | 14.5 | 0.00 | 0.00 | 0.00 | 40 | 1018.8 |
| 20260503224814 | 25 | 163 | 3.2 | 11.3 | 0.00 | 0.00 | 0.00 | 39 | 1018.6 |
| 20260503224539 | 25 | 169 | 3.2 | 11.3 | 0.00 | 0.00 | 0.00 | 40 | 1018.7 |
| 20260503223809 | 25 | 105 | 3.2 | 9.7 | 0.00 | 0.00 | 0.00 | 40 | 1018.8 |
| 20260503223312 | 25 | 81 | 4.8 | 12.9 | 0.00 | 0.00 | 0.00 | 40 | 1018.7 |
| 20260503222811 | 25 | 153 | 6.4 | 24.1 | 0.00 | 0.00 | 0.00 | 40 | 1018.8 |
| 20260503222544 | 25 | 115 | 6.4 | 24.1 | 0.00 | 0.00 | 0.00 | 40 | 1018.7 |
| 20260503221807 | 25 | 91 | 4.8 | 20.9 | 0.00 | 0.00 | 0.00 | 40 | 1018.9 |
| 20260503221539 | 25 | 86 | 4.8 | 14.5 | 0.00 | 0.00 | 0.00 | 40 | 1019.0 |
| 20260503221038 | 25 | 132 | 4.8 | 12.9 | 0.00 | 0.00 | 0.00 | 40 | 1019.0 |
| 20260503220305 | 25 | 200 | 4.8 | 16.1 | 0.00 | 0.00 | 0.00 | 39 | 1019.2 |
| 20260503215805 | 25 | 124 | 4.8 | 16.1 | 0.00 | 0.00 | 0.00 | 40 | 1019.3 |
| 20260503215304 | 25 | 199 | 3.2 | 14.5 | 0.00 | 0.00 | 0.00 | 40 | 1019.3 |
| 20260503214805 | 25 | 232 | 4.8 | 14.5 | 0.00 | 0.00 | 0.00 | 40 | 1019.4 |
| 20260503214535 | 25 | 184 | 4.8 | 14.5 | 0.00 | 0.00 | 0.00 | 40 | 1019.5 |
| 20260503214035 | 25 | 211 | 3.2 | 14.5 | 0.00 | 0.00 | 0.00 | 40 | 1019.7 |
| 20260503213305 | 25 | 190 | 3.2 | 14.5 | 0.00 | 0.00 | 0.00 | 40 | 1019.8 |
| 20260503211803 | 25 | 136 | 4.8 | 14.5 | 0.00 | 0.00 | 0.00 | 40 | 1019.8 |
| 20260503210801 | 25 | 121 | 4.8 | 14.5 | 0.00 | 0.00 | 0.00 | 40 | 1020.1 |
| 20260503210301 | 25 | 165 | 4.8 | 14.5 | 0.00 | 0.00 | 0.00 | 39 | 1020.0 |
| 20260503205800 | 25 | 153 | 4.8 | 14.5 | 0.00 | 0.00 | 0.00 | 41 | 1020.1 |
| 20260503204800 | 25 | 137 | 4.8 | 22.5 | 0.00 | 0.00 | 0.00 | 40 | 1020.3 |
| 20260503204300 | 25 | 152 | 3.2 | 14.5 | 0.00 | 0.00 | 0.00 | 40 | 1020.5 |
| 20260503203800 | 25 | 228 | 3.2 | 14.5 | 0.00 | 0.00 | 0.00 | 41 | 1020.7 |
| 20260503203254 | 25 | 114 | 4.8 | 14.5 | 0.00 | 0.00 | 0.00 | 41 | 1020.6 |
| 20260503202748 | 25 | 80 | 4.8 | 12.9 | 0.00 | 0.00 | 0.00 | 40 | 1020.7 |
| 20260503202512 | 26 | 114 | 3.2 | 12.9 | 0.00 | 0.00 | 0.00 | 41 | 1021.1 |
| 20260503201736 | 26 | 193 | 3.2 | 9.7 | 0.00 | 0.00 | 0.00 | 40 | 1021.1 |
| 20260503201230 | 25 | 228 | 3.2 | 12.9 | 0.00 | 0.00 | 0.00 | 41 | 1021.3 |
| 20260503200724 | 25 | 175 | 3.2 | 12.9 | 0.00 | 0.00 | 0.00 | 40 | 1021.4 |
| 20260503200218 | 25 | 109 | 3.2 | 12.9 | 0.00 | 0.00 | 0.00 | 39 | 1021.4 |
| 20260503195712 | 24 | 105 | 4.8 | 14.5 | 0.00 | 0.00 | 0.00 | 39 | 1021.6 |
| 20260503195205 | 24 | 111 | 4.8 | 17.7 | 0.00 | 0.00 | 0.00 | 40 | 1021.7 |
| 20260503194930 | 24 | 164 | 4.8 | 17.7 | 0.00 | 0.00 | 0.00 | 41 | 1021.8 |
| 20260503194154 | 24 | 154 | 4.8 | 16.1 | 0.00 | 0.00 | 0.00 | 39 | 1021.9 |
| 20260503193919 | 24 | 167 | 6.4 | 17.7 | 0.00 | 0.00 | 0.00 | 38 | 1021.9 |
| 20260503193142 | 24 | 155 | 4.8 | 17.7 | 0.00 | 0.00 | 0.00 | 41 | 1022.0 |
| 20260503192636 | 24 | 90 | 3.2 | 11.3 | 0.00 | 0.00 | 0.00 | 42 | 1021.9 |
| 20260503192130 | 24 | 138 | 4.8 | 14.5 | 0.00 | 0.00 | 0.00 | 38 | 1021.8 |
| 20260503191624 | 24 | 169 | 4.8 | 16.1 | 0.00 | 0.00 | 0.00 | 41 | 1022.0 |
| 20260503191120 | 24 | 147 | 3.2 | 16.1 | 0.00 | 0.00 | 0.00 | 42 | 1022.1 |
| 20260503190620 | 24 | 161 | 3.2 | 12.9 | 0.00 | 0.00 | 0.00 | 45 | 1022.1 |
| 20260503190350 | 24 | 230 | 4.8 | 14.5 | 0.00 | 0.00 | 0.00 | 46 | 1022.1 |
| 20260503185851 | 24 | 142 | 4.8 | 14.5 | 0.00 | 0.00 | 0.00 | 45 | 1022.3 |
| 20260503185120 | 24 | 221 | 4.8 | 12.9 | 0.00 | 0.00 | 0.00 | 45 | 1022.2 |
| 20260503184618 | 24 | 196 | 3.2 | 14.5 | 0.00 | 0.00 | 0.00 | 44 | 1022.2 |
| 20260503184118 | 24 | 158 | 3.2 | 14.5 | 0.00 | 0.00 | 0.00 | 42 | 1022.5 |
| 20260503183618 | 24 | 134 | 3.2 | 14.5 | 0.00 | 0.00 | 0.00 | 44 | 1022.5 |
| 20260503183117 | 23 | 166 | 3.2 | 14.5 | 0.00 | 0.00 | 0.00 | 46 | 1022.6 |
| 20260503182614 | 23 | 216 | 4.8 | 12.9 | 0.00 | 0.00 | 0.00 | 47 | 1022.7 |
| 20260503182114 | 23 | 98 | 6.4 | 12.9 | 0.00 | 0.00 | 0.00 | 48 | 1022.8 |
| 20260503181614 | 23 | 106 | 3.2 | 12.9 | 0.00 | 0.00 | 0.00 | 46 | 1022.9 |
| 20260503181114 | 23 | 121 | 3.2 | 14.5 | 0.00 | 0.00 | 0.00 | 47 | 1022.9 |
| 20260503180615 | 23 | 108 | 4.8 | 16.1 | 0.00 | 0.00 | 0.00 | 47 | 1023.1 |
| 20260503180113 | 23 | 188 | 4.8 | 17.7 | 0.00 | 0.00 | 0.00 | 46 | 1023.2 |
| 20260503175612 | 23 | 159 | 3.2 | 17.7 | 0.00 | 0.00 | 0.00 | 47 | 1023.3 |
| 20260503175346 | 23 | 117 | 4.8 | 14.5 | 0.00 | 0.00 | 0.00 | 46 | 1023.5 |
| 20260503174613 | 23 | 244 | 4.8 | 14.5 | 0.00 | 0.00 | 0.00 | 48 | 1023.5 |
| 20260503174111 | 23 | 146 | 3.2 | 14.5 | 0.00 | 0.00 | 0.00 | 47 | 1023.8 |
| 20260503173605 | 23 | 192 | 3.2 | 11.3 | 0.00 | 0.00 | 0.00 | 49 | 1023.8 |
| 20260503173059 | 23 | 169 | 3.2 | 11.3 | 0.00 | 0.00 | 0.00 | 49 | 1024.0 |
| 20260503172553 | 23 | 146 | 1.6 | 12.9 | 0.00 | 0.00 | 0.00 | 50 | 1024.0 |
| 20260503172046 | 23 | 251 | 3.2 | 12.9 | 0.00 | 0.00 | 0.00 | 49 | 1024.0 |
| 20260503171541 | 23 | 283 | 3.2 | 14.5 | 0.00 | 0.00 | 0.00 | 48 | 1024.1 |
| 20260503171035 | 23 | 163 | 4.8 | 14.5 | 0.00 | 0.00 | 0.00 | 51 | 1024.2 |
| 20260503170528 | 23 | 161 | 3.2 | 11.3 | 0.00 | 0.00 | 0.00 | 48 | 1024.3 |
| 20260503150520 | 21 | 160 | 3.2 | 11.3 | 0.00 | 0.00 | 0.00 | 57 | 1024.8 |
| 20260503131411 | 14 | 78 | 0.0 | 0.0 | 0.00 | 0.00 | 0.00 | 83 | 1023.9 |
| 20260503130904 | 13 | 78 | 0.0 | 0.0 | 0.00 | 0.00 | 0.00 | 85 | 1023.9 |
| 20260503130359 | 13 | 78 | 0.0 | 0.0 | 0.00 | 0.00 | 0.00 | 88 | 1023.9 |
| 20260503110641 | 9 | 78 | 0.0 | 0.0 | 0.00 | 0.00 | 0.00 | 90 | 1022.7 |
| 20260503110135 | 9 | 78 | 0.0 | 0.0 | 0.00 | 0.00 | 0.00 | 89 | 1022.6 |
| 20260503081513 | 10 | 78 | 0.0 | 0.0 | 0.00 | 0.00 | 0.00 | 88 | 1022.6 |
| 20260503081012 | 10 | 78 | 0.0 | 0.0 | 0.00 | 0.00 | 0.00 | 87 | 1022.5 |
| 20260503080513 | 10 | 78 | 0.0 | 0.0 | 0.00 | 0.00 | 0.00 | 87 | 1022.6 |
| 20260503080243 | 10 | 78 | 0.0 | 0.0 | 0.00 | 0.00 | 0.00 | 87 | 1022.7 |
| 20260503072739 | 10 | 78 | 0.0 | 0.0 | 0.00 | 0.00 | 0.00 | 86 | 1022.9 |
| 20260503072009 | 10 | 78 | 0.0 | 0.0 | 0.00 | 0.00 | 0.00 | 86 | 1023.0 |
| 20260503071740 | 11 | 78 | 0.0 | 0.0 | 0.00 | 0.00 | 0.00 | 86 | 1023.1 |
| 20260503071239 | 11 | 78 | 0.0 | 0.0 | 0.00 | 0.00 | 0.00 | 86 | 1023.2 |
| 20260503070737 | 11 | 78 | 0.0 | 0.0 | 0.00 | 0.00 | 0.00 | 86 | 1023.3 |
| 20260503054839 | 11 | 78 | 0.0 | 0.0 | 0.00 | 0.00 | 0.00 | 84 | 1023.3 |
| 20260503054606 | 11 | 78 | 0.0 | 0.0 | 0.00 | 0.00 | 0.00 | 84 | 1023.3 |
| 20260503053828 | 11 | 78 | 0.0 | 0.0 | 0.00 | 0.00 | 0.00 | 84 | 1023.3 |
| 20260503053553 | 12 | 78 | 0.0 | 0.0 | 0.00 | 0.00 | 0.00 | 84 | 1023.2 |
| 20260503052816 | 12 | 78 | 0.0 | 0.0 | 0.00 | 0.00 | 0.00 | 83 | 1023.2 |
| 20260503052310 | 12 | 78 | 0.0 | 0.0 | 0.00 | 0.00 | 0.00 | 83 | 1023.2 |
| 20260503051804 | 12 | 78 | 0.0 | 0.0 | 0.00 | 0.00 | 0.00 | 82 | 1023.2 |
| 20260503051258 | 12 | 78 | 0.0 | 0.0 | 0.00 | 0.00 | 0.00 | 82 | 1023.3 |
| 20260503050753 | 12 | 78 | 0.0 | 0.0 | 0.00 | 0.00 | 0.00 | 82 | 1023.2 |
| 20260503050245 | 12 | 78 | 0.0 | 0.0 | 0.00 | 0.00 | 0.00 | 82 | 1023.2 |
| 20260503045746 | 12 | 78 | 0.0 | 0.0 | 0.00 | 0.00 | 0.00 | 81 | 1023.1 |
| 20260503045516 | 12 | 78 | 0.0 | 0.0 | 0.00 | 0.00 | 0.00 | 82 | 1023.1 |
| 20260503044746 | 12 | 78 | 0.0 | 0.0 | 0.00 | 0.00 | 0.00 | 81 | 1023.2 |
| 20260503044246 | 12 | 78 | 0.0 | 0.0 | 0.00 | 0.00 | 0.00 | 81 | 1023.1 |
| 20260503043746 | 12 | 78 | 0.0 | 0.0 | 0.00 | 0.00 | 0.00 | 81 | 1023.1 |
| 20260503043245 | 12 | 78 | 0.0 | 0.0 | 0.00 | 0.00 | 0.00 | 80 | 1023.1 |
| 20260503042746 | 13 | 78 | 0.0 | 0.0 | 0.00 | 0.00 | 0.00 | 80 | 1023.0 |
| 20260503042519 | 13 | 78 | 0.0 | 0.0 | 0.00 | 0.00 | 0.00 | 79 | 1023.1 |
| 20260503041746 | 13 | 78 | 0.0 | 0.0 | 0.00 | 0.00 | 0.00 | 79 | 1023.2 |
| 20260503041245 | 13 | 78 | 0.0 | 0.0 | 0.00 | 0.00 | 0.00 | 78 | 1023.2 |
| 20260503041017 | 13 | 78 | 0.0 | 0.0 | 0.00 | 0.00 | 0.00 | 78 | 1023.2 |
| 20260503040245 | 13 | 78 | 0.0 | 0.0 | 0.00 | 0.00 | 0.00 | 78 | 1023.2 |
| 20260503035746 | 13 | 78 | 0.0 | 0.0 | 0.00 | 0.00 | 0.00 | 77 | 1023.0 |
| 20260503035246 | 13 | 78 | 0.0 | 0.0 | 0.00 | 0.00 | 0.00 | 77 | 1023.1 |
| 20260503034746 | 13 | 78 | 0.0 | 0.0 | 0.00 | 0.00 | 0.00 | 76 | 1023.0 |
| 20260503034245 | 14 | 78 | 0.0 | 0.0 | 0.00 | 0.00 | 0.00 | 75 | 1022.8 |
| 20260503033745 | 14 | 78 | 0.0 | 0.0 | 0.00 | 0.00 | 0.00 | 74 | 1022.8 |
| 20260503033517 | 14 | 78 | 0.0 | 0.0 | 0.00 | 0.00 | 0.00 | 74 | 1022.9 |
| 20260503032739 | 14 | 78 | 0.0 | 0.0 | 0.00 | 0.00 | 0.00 | 74 | 1022.9 |
| 20260503032233 | 15 | 78 | 0.0 | 0.0 | 0.00 | 0.00 | 0.00 | 72 | 1022.8 |
| 20260503031727 | 15 | 78 | 0.0 | 0.0 | 0.00 | 0.00 | 0.00 | 72 | 1022.8 |
| 20260503031221 | 15 | 78 | 0.0 | 0.0 | 0.00 | 0.00 | 0.00 | 70 | 1022.8 |
| 20260503030715 | 15 | 78 | 0.0 | 0.0 | 0.00 | 0.00 | 0.00 | 70 | 1022.7 |